GW0058 Weather Reports


Display with metric or nautical units.
time (UTC)temp
F
wind
direction
speed
MPH
gust
MPH
rain 1hr
in
rain 24hr
in
rain mn
in
humidity
%
barometer
mb
20260510015048 77 0 0.0 1.0 0.00 0.04 0.04 72 1010.6
20260510014557 78 0 0.0 1.0 0.00 0.04 0.04 70 1010.5
20260510014049 78 0 0.0 3.0 0.00 0.04 0.04 70 1010.5
20260510013551 78 0 0.0 3.0 0.00 0.04 0.04 69 1010.4
20260510013054 79 0 0.0 3.0 0.00 0.04 0.04 69 1010.3
20260510012548 79 0 0.0 4.0 0.00 0.04 0.04 68 1010.3
20260510012141 79 0 0.0 4.0 0.00 0.04 0.04 68 1010.3
20260510012047 79 0 0.0 4.0 0.00 0.04 0.04 68 1010.3
20260510011556 80 117 1.0 4.0 0.00 0.04 0.04 67 1010.2
20260510011050 80 0 0.0 3.0 0.00 0.04 0.04 66 1010.2
20260510010551 81 76 1.0 4.0 0.00 0.04 0.04 65 1010.2
20260510010054 81 136 1.0 7.0 0.00 0.04 0.04 63 1010.1
20260510005548 81 109 1.0 7.0 0.00 0.04 0.04 61 1010.0
20260510005047 82 138 1.0 7.0 0.00 0.04 0.04 59 1009.9
20260510004555 82 149 1.0 4.0 0.00 0.04 0.04 55 1009.9
20260510004050 82 147 1.0 4.0 0.00 0.04 0.04 53 1009.8
20260510003548 83 88 2.0 4.0 0.00 0.04 0.04 51 1009.8
20260510003110 83 0 0.0 3.0 0.00 0.04 0.04 49 1009.7
20260510002549 84 69 0.0 3.0 0.00 0.04 0.04 48 1009.7
20260510002049 84 52 0.0 3.0 0.00 0.04 0.04 47 1009.6
20260510001552 84 0 0.0 2.0 0.00 0.04 0.04 46 1009.6
20260510001047 85 159 0.0 2.0 0.00 0.04 0.04 47 1009.5
20260510000553 85 0 0.0 4.0 0.00 0.04 0.04 47 1009.5
20260510000055 85 0 1.0 4.0 0.00 0.04 0.04 46 1009.4
20260509235549 85 86 0.0 4.0 0.00 0.04 0.04 46 1009.5
20260509235047 85 160 0.0 5.0 0.00 0.04 0.04 45 1009.5
20260509234604 85 0 1.0 5.0 0.00 0.04 0.04 44 1009.4
20260509234049 86 0 0.0 4.0 0.00 0.04 0.04 47 1009.4
20260509233550 86 173 1.0 4.0 0.00 0.04 0.04 45 1009.3
20260509233053 86 48 1.0 6.0 0.00 0.04 0.04 46 1009.3
20260509232547 86 98 1.0 6.0 0.00 0.04 0.04 47 1009.3
20260509232048 87 104 1.0 5.0 0.00 0.04 0.04 46 1009.3
20260509231556 86 35 1.0 7.0 0.00 0.04 0.04 47 1009.3
20260509231049 86 133 2.0 7.0 0.00 0.04 0.04 46 1009.2
20260509230549 87 162 3.0 7.0 0.00 0.04 0.04 46 1009.1
20260509230103 87 50 2.0 7.0 0.00 0.04 0.04 48 1009.1
20260509225550 86 154 3.0 7.0 0.00 0.04 0.04 47 1009.1
20260509225051 86 34 2.0 7.0 0.00 0.04 0.04 48 1009.1
20260509224553 86 133 2.0 7.0 0.00 0.04 0.04 49 1009.2
20260509224050 86 174 2.0 10.0 0.00 0.04 0.04 51 1009.2
20260509223550 86 146 5.0 10.0 0.00 0.04 0.04 52 1009.2
20260509223055 86 183 5.0 10.0 0.00 0.04 0.04 57 1009.2
20260509222546 86 137 3.0 11.0 0.00 0.04 0.04 57 1009.2
20260509222050 86 147 5.0 11.0 0.00 0.04 0.04 54 1009.2
20260509221554 86 149 3.0 10.0 0.00 0.04 0.04 54 1009.2
20260509221050 86 175 3.0 9.0 0.00 0.04 0.04 53 1009.2
20260509220549 86 185 3.0 7.0 0.00 0.04 0.04 53 1009.1
20260509220055 86 346 2.0 7.0 0.00 0.04 0.04 54 1008.9
20260509215553 85 149 2.0 8.0 0.00 0.04 0.04 55 1009.0
20260509215049 84 216 3.0 8.0 0.00 0.04 0.04 56 1009.0
20260509214554 82 0 1.0 7.0 0.00 0.04 0.04 59 1009.2
20260509214049 82 94 2.0 8.0 0.00 0.04 0.04 57 1009.4
20260509213546 82 57 3.0 15.0 0.00 0.04 0.04 56 1009.4
20260509213101 83 96 2.0 15.0 0.00 0.04 0.04 54 1009.5
20260509212549 87 54 4.0 14.0 0.00 0.04 0.04 50 1009.6
20260509212049 88 0 0.0 4.0 0.00 0.04 0.04 51 1009.4
20260509211556 88 200 0.0 8.0 0.00 0.04 0.04 46 1009.4
20260509211049 89 338 1.0 8.0 0.00 0.04 0.04 45 1009.3
20260509210548 90 294 1.0 6.0 0.00 0.04 0.04 44 1009.4
20260509210058 91 250 3.0 6.0 0.00 0.04 0.04 45 1009.4
20260509205549 90 216 1.0 6.0 0.00 0.04 0.04 46 1009.4
20260509205049 90 175 3.0 7.0 0.00 0.04 0.04 44 1009.5
20260509204555 90 242 3.0 7.0 0.00 0.04 0.04 42 1009.6
20260509204049 89 173 0.0 3.0 0.00 0.04 0.04 48 1009.7
20260509203548 87 0 1.0 6.0 0.00 0.04 0.04 52 1009.8
20260509203052 88 0 2.0 7.0 0.00 0.04 0.04 49 1009.8
20260509202548 88 279 2.0 7.0 0.00 0.04 0.04 47 1010.0
20260509202048 89 215 2.0 10.0 0.00 0.04 0.04 49 1009.9
20260509201553 89 219 1.0 10.0 0.00 0.04 0.04 46 1010.0
20260509201052 89 275 3.0 10.0 0.00 0.04 0.04 48 1010.1
20260509200551 88 303 1.0 8.0 0.00 0.04 0.04 54 1010.1
20260509200057 86 240 3.0 8.0 0.00 0.04 0.04 54 1010.4
20260509195549 88 132 2.0 8.0 0.00 0.04 0.04 49 1010.4
20260509195050 89 188 2.0 8.0 0.00 0.04 0.04 51 1010.5
20260509194553 88 250 2.0 9.0 0.00 0.04 0.04 56 1010.6
20260509194050 86 0 1.0 9.0 0.00 0.04 0.04 55 1010.5
20260509193550 86 333 1.0 6.0 0.00 0.04 0.04 57 1010.7
20260509193051 86 0 1.0 6.0 0.00 0.04 0.04 57 1010.7
20260509192548 86 258 2.0 6.0 0.00 0.04 0.04 59 1010.8
20260509192049 88 167 2.0 6.0 0.00 0.04 0.04 56 1010.8
20260509191553 86 210 3.0 6.0 0.00 0.04 0.04 58 1010.8
20260509191052 86 184 3.0 6.0 0.00 0.04 0.04 60 1010.8
20260509190554 87 318 2.0 7.0 0.00 0.04 0.04 57 1011.0
20260509190055 86 193 1.0 9.0 0.00 0.04 0.04 62 1011.3
20260509185550 85 273 2.0 9.0 0.00 0.04 0.04 62 1011.4
20260509185050 87 238 2.0 8.0 0.00 0.04 0.04 61 1011.5
20260509184552 86 296 2.0 5.0 0.00 0.04 0.04 65 1011.6
20260509184049 85 260 2.0 7.0 0.00 0.04 0.04 65 1011.6
20260509183554 84 0 0.0 7.0 0.00 0.04 0.04 61 1011.7
20260509183133 86 263 2.0 7.0 0.00 0.04 0.04 61 1011.7
20260509182549 85 274 2.0 5.0 0.00 0.04 0.04 62 1011.7
20260509182052 84 0 0.0 7.0 0.00 0.04 0.04 66 1011.7
20260509181607 84 132 2.0 7.0 0.00 0.04 0.04 65 1011.8
20260509181048 84 103 2.0 7.0 0.00 0.04 0.04 63 1011.8
20260509180546 85 188 2.0 7.0 0.00 0.04 0.04 65 1011.9
20260509180058 85 155 2.0 7.0 0.00 0.04 0.04 66 1012.0
20260509175548 84 281 2.0 7.0 0.00 0.04 0.04 66 1011.9
20260509175050 84 201 2.0 6.0 0.00 0.04 0.04 68 1011.9
20260509174557 84 194 1.0 8.0 0.00 0.04 0.04 67 1012.0
20260509174050 84 221 3.0 8.0 0.00 0.04 0.04 66 1012.1
20260509173552 84 179 3.0 9.0 0.00 0.04 0.04 73 1012.2
20260509173102 83 320 1.0 9.0 0.00 0.04 0.04 69 1012.1
20260509172548 83 248 3.0 7.0 0.00 0.04 0.04 75 1012.2
20260509172051 82 197 3.0 6.0 0.00 0.04 0.04 73 1012.3
20260509171558 81 227 2.0 7.0 0.00 0.04 0.04 74 1012.3
20260509171050 81 150 2.0 7.0 0.00 0.04 0.04 72 1012.3
20260509170549 81 215 2.0 6.0 0.00 0.04 0.04 75 1012.5
20260509170056 81 146 3.0 7.0 0.00 0.04 0.04 77 1012.4
20260509165550 81 229 2.0 7.0 0.00 0.04 0.04 77 1012.4
20260509165050 79 198 2.0 6.0 0.00 0.04 0.04 78 1012.5
20260509164600 79 297 3.0 6.0 0.00 0.04 0.04 80 1012.5
20260509164052 80 236 2.0 7.0 0.00 0.04 0.04 82 1012.5
20260509163548 80 277 3.0 10.0 0.00 0.04 0.04 79 1012.5
20260509163100 79 157 4.0 10.0 0.00 0.04 0.04 80 1012.6
20260509162548 78 262 3.0 8.0 0.00 0.04 0.04 83 1012.5
20260509162048 78 224 4.0 8.0 0.00 0.04 0.04 80 1012.5
20260509161552 79 175 3.0 8.0 0.00 0.04 0.04 84 1012.4
20260509161048 78 234 2.0 9.0 0.00 0.04 0.04 84 1012.5
20260509160550 78 253 2.0 9.0 0.00 0.04 0.04 83 1012.7
20260509160057 78 225 3.0 7.0 0.00 0.04 0.04 86 1012.5
20260509155550 78 199 2.0 5.0 0.00 0.04 0.04 85 1012.5
20260509155049 77 0 1.0 3.0 0.00 0.04 0.04 89 1012.9
20260509154558 76 296 1.0 5.0 0.00 0.04 0.04 89 1012.9
20260509154050 75 0 1.0 5.0 0.00 0.04 0.04 91 1012.8
20260509153548 74 225 2.0 5.0 0.00 0.04 0.04 91 1012.8
20260509153053 75 0 1.0 5.0 0.00 0.04 0.04 92 1012.9
20260509152551 75 232 2.0 5.0 0.00 0.04 0.04 93 1012.9
20260509152050 74 150 1.0 6.0 0.00 0.04 0.04 95 1012.8
20260509151550 73 187 2.0 6.0 0.00 0.04 0.04 94 1012.7
20260509151049 73 194 1.0 6.0 0.00 0.04 0.04 95 1012.8
20260509150549 72 150 0.0 6.0 0.00 0.04 0.04 95 1012.8
20260509150051 72 173 2.0 6.0 0.00 0.04 0.04 95 1012.7
20260509145549 72 142 1.0 8.0 0.00 0.04 0.04 95 1012.7
20260509145049 72 151 2.0 8.0 0.00 0.04 0.04 95 1012.5
20260509144556 72 137 1.0 4.0 0.00 0.04 0.04 95 1012.4
20260509144049 72 0 1.0 7.0 0.00 0.04 0.04 96 1012.6
20260509143549 72 146 1.0 9.0 0.00 0.04 0.04 95 1012.4
20260509143054 71 147 4.0 9.0 0.00 0.04 0.04 95 1012.2
20260509142548 71 130 1.0 4.0 0.00 0.04 0.04 96 1012.1
20260509142048 71 0 0.0 1.0 0.00 0.04 0.04 96 1012.4
20260509141600 71 20 0.0 0.0 0.00 0.04 0.04 96 1012.4
20260509141050 71 0 0.0 0.0 0.00 0.04 0.04 95 1012.4
20260509140548 71 0 0.0 0.0 0.00 0.04 0.04 96 1012.3
20260509140059 71 0 0.0 1.0 0.00 0.04 0.04 96 1012.3
20260509135549 71 0 0.0 1.0 0.00 0.04 0.04 95 1012.4
20260509135047 71 0 0.0 0.0 0.00 0.04 0.04 96 1012.4
20260509134558 71 0 0.0 1.0 0.00 0.04 0.04 96 1012.3
20260509134048 71 0 0.0 1.0 0.00 0.04 0.04 96 1012.3
20260509133550 71 0 0.0 1.0 0.00 0.04 0.04 96 1012.3
20260509133049 71 0 0.0 2.0 0.00 0.04 0.04 96 1012.4
20260509132551 71 0 0.0 2.0 0.00 0.04 0.04 96 1012.3
20260509132052 71 0 0.0 2.0 0.00 0.04 0.04 96 1012.3
20260509131551 71 0 0.0 1.0 0.00 0.04 0.04 95 1012.2
20260509131049 71 0 0.0 1.0 0.00 0.04 0.04 96 1012.4
20260509130549 71 130 0.0 1.0 0.00 0.04 0.04 96 1012.1
20260509130053 71 158 0.0 1.0 0.00 0.04 0.04 96 1012.1
20260509125549 71 0 0.0 1.0 0.00 0.04 0.04 96 1012.3
20260509125106 70 0 0.0 2.0 0.00 0.04 0.04 95 1012.2
20260509124608 71 158 0.0 2.0 0.00 0.04 0.04 96 1012.1
20260509124048 71 0 0.0 3.0 0.00 0.04 0.04 96 1012.1
20260509123552 70 0 0.0 3.0 0.00 0.04 0.04 96 1011.9
20260509123105 70 149 0.0 4.0 0.00 0.04 0.04 95 1011.8
20260509122547 70 0 1.0 4.0 0.00 0.04 0.04 95 1011.8
20260509122050 70 0 0.0 2.0 0.00 0.04 0.04 95 1011.8
20260509121605 70 0 0.0 5.0 0.00 0.04 0.04 95 1011.7
20260509121053 70 344 0.0 5.0 0.00 0.04 0.04 95 1011.6
20260509120550 70 311 0.0 5.0 0.00 0.04 0.04 95 1011.7
20260509120056 70 312 1.0 4.0 0.00 0.04 0.04 95 1011.8
20260509115549 70 360 1.0 3.0 0.00 0.04 0.04 95 1012.1
20260509115049 71 294 1.0 3.0 0.00 0.04 0.04 95 1012.1
20260509114559 71 308 0.0 2.0 0.00 0.04 0.04 95 1012.2
20260509114049 71 342 0.0 4.0 0.00 0.04 0.04 95 1012.3
20260509113548 71 0 0.0 4.0 0.00 0.04 0.04 95 1012.4
20260509113053 71 315 1.0 4.0 0.00 0.04 0.04 95 1012.5
20260509112548 71 0 0.0 4.0 0.00 0.04 0.04 95 1012.5
20260509112050 71 0 0.0 3.0 0.00 0.04 0.04 95 1012.7
20260509111552 71 0 0.0 2.0 0.00 0.04 0.04 95 1012.6
20260509111051 71 0 0.0 2.0 0.00 0.04 0.04 95 1012.7
20260509110550 71 0 0.0 3.0 0.00 0.04 0.04 95 1012.8
20260509110050 71 0 0.0 3.0 0.00 0.04 0.04 95 1012.8
20260509105549 71 0 0.0 3.0 0.01 0.04 0.04 95 1012.6
20260509105051 71 0 0.0 1.0 0.01 0.04 0.04 95 1012.5
20260509104551 71 0 0.0 2.0 0.01 0.04 0.04 95 1012.6
20260509104049 71 0 0.0 2.0 0.01 0.04 0.04 95 1012.4
20260509103549 71 0 0.0 2.0 0.01 0.04 0.04 95 1012.1
20260509103052 71 121 0.0 2.0 0.01 0.04 0.04 95 1012.0
20260509102549 71 0 0.0 2.0 0.01 0.04 0.04 95 1012.1
20260509102049 71 98 0.0 2.0 0.02 0.04 0.04 95 1012.0
20260509101555 71 0 0.0 3.0 0.02 0.04 0.04 95 1012.0
20260509101050 71 0 0.0 3.0 0.03 0.04 0.04 95 1011.8
20260509100550 71 78 0.0 2.0 0.03 0.04 0.04 95 1011.8
20260509100051 71 66 0.0 1.0 0.04 0.04 0.04 95 1011.7
20260509095547 71 0 0.0 1.0 0.03 0.03 0.03 95 1011.7
20260509095050 71 0 0.0 1.0 0.03 0.03 0.03 95 1011.6
20260509094557 71 0 0.0 1.0 0.03 0.03 0.03 95 1011.4
20260509094048 71 0 0.0 0.0 0.03 0.03 0.03 95 1011.4
20260509093547 71 0 0.0 0.0 0.03 0.03 0.03 95 1011.3
20260509093059 71 0 0.0 0.0 0.03 0.03 0.03 95 1011.3
20260509092547 71 0 0.0 1.0 0.03 0.03 0.03 95 1011.4
20260509092046 71 0 0.0 2.0 0.02 0.02 0.02 95 1011.4
20260509091555 71 0 0.0 2.0 0.02 0.02 0.02 95 1011.3
20260509091049 71 0 0.0 2.0 0.01 0.01 0.01 95 1011.4
20260509090547 71 0 0.0 2.0 0.01 0.01 0.01 95 1011.4
20260509090052 71 0 0.0 1.0 0.00 0.00 0.00 95 1011.3
20260509085546 71 0 0.0 1.0 0.00 0.00 0.00 94 1011.3
20260509085050 71 0 0.0 1.0 0.00 0.00 0.00 95 1011.3
20260509084558 71 0 0.0 0.0 0.00 0.00 0.00 94 1011.3
20260509084050 71 0 0.0 0.0 0.00 0.00 0.00 94 1011.3
20260509083547 71 0 0.0 0.0 0.00 0.00 0.00 94 1011.3
20260509083054 71 0 0.0 1.0 0.00 0.00 0.00 94 1011.4
20260509082547 71 0 0.0 1.0 0.00 0.00 0.00 94 1011.4
20260509082048 71 181 0.0 1.0 0.00 0.00 0.00 94 1011.5
20260509081555 71 0 0.0 0.0 0.00 0.00 0.00 94 1011.4
20260509081047 71 0 0.0 3.0 0.00 0.00 0.00 94 1011.4
20260509080548 71 0 0.0 5.0 0.00 0.00 0.00 94 1011.4
20260509080059 71 144 0.0 5.0 0.00 0.00 0.00 94 1011.2
20260509075548 71 138 2.0 6.0 0.00 0.00 0.00 93 1011.4
20260509075050 71 160 3.0 6.0 0.00 0.00 0.00 93 1011.4
20260509074552 71 159 0.0 4.0 0.00 0.00 0.00 93 1011.3
20260509074050 71 0 0.0 5.0 0.00 0.00 0.00 93 1011.2
20260509073551 71 130 1.0 5.0 0.00 0.00 0.00 93 1011.2
20260509073051 71 148 1.0 5.0 0.00 0.00 0.00 93 1011.2
20260509072553 71 148 1.0 5.0 0.00 0.00 0.00 93 1011.1
20260509072049 71 172 1.0 5.0 0.00 0.00 0.00 93 1011.2
20260509071556 72 0 0.0 0.0 0.00 0.00 0.00 93 1011.3
20260509071048 72 0 0.0 0.0 0.00 0.00 0.00 93 1011.6
20260509070548 71 0 0.0 0.0 0.00 0.00 0.00 93 1011.6
20260509070053 71 0 0.0 1.0 0.00 0.00 0.00 93 1011.4
20260509065547 71 0 0.0 5.0 0.00 0.00 0.00 93 1011.4
20260509065047 71 0 1.0 5.0 0.00 0.00 0.00 93 1011.4
20260509064602 71 163 2.0 4.0 0.00 0.00 0.00 93 1011.5
20260509064048 71 134 1.0 6.0 0.00 0.00 0.00 93 1011.5
20260509063547 71 169 2.0 6.0 0.00 0.00 0.00 93 1011.2
20260509063056 71 169 2.0 6.0 0.00 0.00 0.00 93 1011.1
20260509062548 71 179 2.0 8.0 0.00 0.00 0.00 93 1011.2
20260509062050 71 134 2.0 8.0 0.00 0.00 0.00 93 1011.2
20260509061553 71 173 1.0 8.0 0.00 0.00 0.00 93 1011.0
20260509061050 71 155 2.0 4.0 0.00 0.00 0.00 93 1011.1
20260509060548 71 198 1.0 6.0 0.00 0.00 0.00 92 1011.4
20260509060054 71 171 2.0 9.0 0.00 0.00 0.00 92 1011.6
20260509055547 71 180 3.0 9.0 0.00 0.00 0.00 92 1011.6
20260509055049 71 169 3.0 7.0 0.00 0.00 0.00 92 1011.5
20260509054551 71 175 2.0 5.0 0.00 0.00 0.00 92 1011.5
20260509054047 71 217 1.0 5.0 0.00 0.00 0.00 92 1011.5
20260509053547 71 180 1.0 7.0 0.00 0.00 0.00 92 1011.6
20260509053049 71 184 3.0 7.0 0.00 0.00 0.00 92 1011.5
20260509052548 71 158 2.0 7.0 0.00 0.00 0.00 92 1011.6
20260509052049 71 144 3.0 9.0 0.00 0.00 0.00 92 1011.7
20260509051558 71 137 2.0 9.0 0.00 0.00 0.00 92 1011.6
20260509051047 71 156 3.0 9.0 0.00 0.00 0.00 92 1011.6
20260509050548 71 128 2.0 5.0 0.00 0.00 0.00 92 1011.6
20260509050056 71 144 2.0 5.0 0.00 0.00 0.00 92 1011.5
20260509045548 71 184 2.0 5.0 0.00 0.00 0.00 92 1011.5
20260509045048 71 0 1.0 5.0 0.00 0.00 0.00 92 1011.3
20260509044557 71 145 1.0 3.0 0.00 0.00 0.00 92 1011.2
20260509044047 71 142 1.0 3.0 0.00 0.00 0.00 92 1011.2
20260509043548 71 140 0.0 3.0 0.00 0.00 0.00 91 1011.2
20260509043052 71 0 0.0 0.0 0.00 0.00 0.00 91 1011.1
20260509042547 71 0 0.0 0.0 0.00 0.00 0.00 90 1011.0
20260509042051 71 0 0.0 2.0 0.00 0.00 0.00 90 1011.0
20260509041556 72 0 0.0 2.0 0.00 0.00 0.00 90 1011.2
20260509041047 72 0 0.0 2.0 0.00 0.00 0.00 90 1011.1
20260509040550 72 103 0.0 3.0 0.00 0.00 0.00 90 1011.3
20260509040053 72 0 0.0 3.0 0.00 0.00 0.00 90 1011.3
20260509035550 72 0 0.0 3.0 0.00 0.00 0.00 90 1011.4
20260509035052 72 0 1.0 3.0 0.00 0.00 0.00 90 1011.4
20260509034552 72 151 0.0 2.0 0.00 0.00 0.00 90 1011.5
20260509034048 72 153 0.0 2.0 0.00 0.00 0.00 90 1011.4
20260509033550 72 0 1.0 5.0 0.00 0.00 0.00 89 1011.4
20260509033056 72 0 1.0 5.0 0.00 0.00 0.00 90 1011.3
20260509032550 72 0 0.0 2.0 0.00 0.00 0.00 90 1011.3
20260509032049 72 144 0.0 2.0 0.00 0.00 0.00 90 1011.3
20260509031551 72 0 0.0 2.0 0.00 0.00 0.00 90 1011.3
20260509031051 72 0 0.0 2.0 0.00 0.00 0.00 90 1011.2
20260509030551 72 0 0.0 1.0 0.00 0.00 0.00 90 1011.0
20260509030051 72 0 0.0 2.0 0.00 0.00 0.00 90 1011.1
20260509025547 72 0 0.0 2.0 0.00 0.00 0.00 90 1011.0
20260509025050 72 0 0.0 1.0 0.00 0.00 0.00 90 1011.0
20260509024550 72 0 0.0 1.0 0.00 0.00 0.00 90 1011.0
20260509024047 72 0 0.0 0.0 0.00 0.00 0.00 89 1010.9
20260509023547 72 0 0.0 0.0 0.00 0.00 0.00 90 1010.9
20260509023101 72 0 0.0 0.0 0.00 0.00 0.00 90 1010.8
20260509022551 72 0 0.0 0.0 0.00 0.00 0.00 90 1010.9
20260509022048 72 0 0.0 0.0 0.00 0.00 0.00 90 1010.8
20260509021549 71 0 0.0 3.0 0.00 0.00 0.00 89 1010.8
20260509021048 72 0 0.0 4.0 0.00 0.00 0.00 89 1010.6
20260509020547 72 0 1.0 4.0 0.00 0.00 0.00 89 1010.4
20260509020054 72 0 0.0 3.0 0.00 0.00 0.00 88 1010.3
20260509015551 72 142 0.0 4.0 0.00 0.00 0.00 88 1010.2